Flag for Poland Weather past 2 weeks in Radom, Poland

Now
36 °F

Low clouds.


Feels Like: 32 °F
Forecast: 35 / 48 °F
Wind: 6 mph from Northwest

Location: Kielce

Current Time: Apr 18, 2015 at 4:07:01 PM

Latest Report: Apr 18, 2015 at 3:00 PM


Visibility: 6 mi

Pressure: 30.09 "Hg

Humidity: 92%

Dew point: 34 °F

Location of RadomLocation

Historic Weather in Radom — Graph

°F

Radom temperature yesterday

Maximum temperature yesterday: 53 °F (at 4:00 PM)
Minimum temperature yesterday: 32 °F (at 6:00 AM)
Average temperature yesterday: 44 °F

Past Weeks' High & Low Weather Summary

 TemperatureHumidityPressure
High67 °F (Apr 11, 3:00 PM)98% (Apr 5, 3:00 AM)30.54 "Hg (Apr 5, 3:00 AM)
Low28 °F (Apr 10, 6:00 AM)21% (Apr 9, 4:00 PM)29.82 "Hg (Apr 16, 8:00 AM)
Average44 °F68%30.14 "Hg
* Reported Apr 3 2:00 PM — Apr 18 2:00 PM, Radom, Weather by CustomWeather, © 2015

Note: Actual official high and low records may vary slightly from our data, if they occured in-between our weather recording intervals... More about our weather records

Advertising

Radom weather history for previous 24 hours

 ConditionsComfort  
Time TempWeatherWind HumidityBarometerVisibility
2:00 PM
Sat, Apr 18
41 °FSprinkles. Overcast.3 mph70%30.06 "Hg13 mi
1:00 PM37 °FOvercast.5 mph94%30.09 "Hg6 mi
11:00 AM38 °FLight rain. Overcast.5 mph70%30.07 "Hg14 mi
10:00 AM37 °FLight rain. Overcast.5 mph75%30.05 "Hg14 mi
9:00 AM36 °FLight snow. Overcast.5 mph79%30.05 "Hg18 mi
8:00 AM35 °FOvercast.5 mph83%30.04 "Hg10 mi
7:00 AM34 °FOvercast.7 mph81%30.03 "Hg25 mi
6:00 AM34 °FScattered clouds.3 mph83%30.01 "Hg25 mi
5:00 AM36 °FPassing clouds.5 mph80%29.99 "Hg19 mi
4:00 AM34 °FPassing clouds.1 mph86%29.99 "Hg19 mi
3:00 AM35 °FPassing clouds.2 mph83%29.98 "Hg22 mi
2:00 AM35 °FClear.2 mph78%29.97 "Hg10 mi
1:00 AM36 °FPassing clouds.1 mph79%29.95 "Hg10 mi
12:00 AM38 °FClear.2 mph69%29.93 "Hg12 mi
11:00 PM
Fri, Apr 17
41 °FPassing clouds.5 mph63%29.92 "Hg9 mi
10:00 PM41 °FPassing clouds.1 mph61%29.90 "Hg6 mi
9:00 PM45 °FPassing clouds.2 mph54%29.89 "Hg7 mi
8:00 PM48 °FOvercast.3 mph45%29.87 "Hg12 mi
7:00 PM49 °FOvercast.5 mph41%29.86 "Hg22 mi
6:00 PM51 °FOvercast.6 mph39%29.85 "Hg22 mi
5:00 PM53 °FOvercast.5 mph37%29.84 "Hg22 mi
4:00 PM53 °FOvercast.5 mph39%29.84 "Hg19 mi
Weather by CustomWeather, © 2015

See weather overviewHow to use our weather pages